Powrót do katalogu

ONEWEB-0214

AktywnyŁącznośćPO
NORAD 48788·PAYLOAD·🇬🇧 United Kingdom

Wystrzelony May 28, 2021 z Vostochny Cosmodrome

Loading…

Następne Przeloty (najbliższe 24 godziny)

TLE

ŚwieżeSource: CelesTrak SupGP

Epoka: Sep 14, 2026, 20:22 UTC

1 48788C 21045X   26257.84875414  .00001814  00000+0  48254-2 0  2575
2 48788  87.8990 241.3108 0002360  87.8676 349.8422 13.15545009    16

Śledź ONEWEB-0214 w czasie rzeczywistym z AllMySat

Download on the App Store